This is the latest recevied weather packets stored in our database for station/object IZ5MMH-1. If no packets are shown the sender has not sent any weather packets the latest 10 day(s).
| Time | Temp. | Humidity | Pressure | Rain* | Wind** | Luminosity | Snow |
|---|---|---|---|---|---|---|---|
| 1787900096 | 30.56° C | 58% | 1016.5 hPa | - | - | - | - |
| 1787899496 | 30.56° C | 62% | 1016.8 hPa | - | - | - | - |
| 1787898896 | 30° C | 63% | 1017.1 hPa | - | - | - | - |
| 1787898296 | 30° C | 64% | 1017.2 hPa | - | - | - | - |
| 1787897695 | 28.89° C | 66% | 1017.5 hPa | - | - | - | - |
| 1787897096 | 28.33° C | 67% | 1017.7 hPa | - | - | - | - |
| 1787896496 | 27.22° C | 69% | 1017.7 hPa | - | - | - | - |
| 1787895895 | 26.67° C | 71% | 1017.3 hPa | - | - | - | - |
| 1787895297 | 26.11° C | 73% | 1017.4 hPa | - | - | - | - |
| 1787894691 | 25.56° C | 73% | 1017.2 hPa | - | - | - | - |
| 1787894096 | 25.56° C | 74% | 1017.1 hPa | - | - | - | - |
| 1787893496 | 25° C | 74% | 1017.2 hPa | - | - | - | - |
| 1787892895 | 25° C | 75% | 1017.1 hPa | - | - | - | - |
| 1787892295 | 25° C | 75% | 1016.9 hPa | - | - | - | - |
| 1787891695 | 25° C | 74% | 1016.9 hPa | - | - | - | - |
| 1787891094 | 25° C | 74% | 1016.7 hPa | - | - | - | - |
| 1787890495 | 25.56° C | 74% | 1016.7 hPa | - | - | - | - |
| 1787889896 | 25.56° C | 74% | 1016.7 hPa | - | - | - | - |
| 1787889296 | 25.56° C | 74% | 1017 hPa | - | - | - | - |
| 1787888695 | 25.56° C | 74% | 1017 hPa | - | - | - | - |
| 1787888096 | 25.56° C | 75% | 1017 hPa | - | - | - | - |
| 1787887495 | 25.56° C | 75% | 1016.8 hPa | - | - | - | - |
| 1787886897 | 26.11° C | 73% | 1016.9 hPa | - | - | - | - |
| 1787886296 | 26.11° C | 73% | 1016.9 hPa | - | - | - | - |
| 1787885695 | 26.67° C | 74% | 1017.1 hPa | - | - | - | - |
* Rain since midnight (hover to see other rain measurements)
** Current wind speed in m/s (hover to see current wind gust speed)